Location: Sungai Lasa
(2.4500°N, 113.4500°E)
Time: 04:43:29
(UTC+00:00)

Cosmos 1140 Rocket - Pass Details

Date: 03 February 2023
Orbit: 744 x 766 km, 74.1° (Epoch: 26 March)

Event Time Altitude Azimuth Distance (km) Brightness Sun altitude
Exits shadow 21:24:37 32° 261° (W) 1,271 4.1 -18.8°
Maximum altitude 21:24:43 32° 258° (WSW) 1,270 4.2 -18.7°
Drops below altitude 10° 21:29:16 10° 196° (SSW) 2,273 6.0 -17.7°
Sets 21:31:52 0° 186° (S) 3,203 6.9 -17.0°
